PulseSat

PulseSat

GSAT0210 (GALILEO 13)

Last updated on Feb. 16, 2019, 3:04 a.m. UTC

1 41550U 16030B   19045.57275935  .00000002  00000-0  00000-0 0  9999
2 41550  56.6826 295.3381 0001755 302.4585  57.5900  1.70474352 16989
UTC
Height (km)
Latitude
Longitude
Inclination
Orbital Period

Next 30 passes for location: Hong Kong

Rise time Rise Azimuth (degrees) Set time Set Azimuth (degrees) Duration Max altitude (degrees)

No matching passes for this satellites

PulseSat

PulseSat is the new satellites software and hardware trackering solution by Pulsely.
Satellite Two Line Element Set source: US Air Force Space Command

Download PulseSat for iOS
© 2017 Pulsely Limited